timestamp,wind_dir_avg,wind_spd_avg,wind_spd_max_dir,wind_spd_gust,battery_voltage,lat,long
2024-01-20 00:04:00+00:00,258.0,8.72,262.0,10.92,12.25,47.59359,-54.27349
2024-01-20 00:14:01+00:00,276.0,7.62,276.0,13.43,12.17,47.59359,-54.27349
2024-01-20 00:24:01+00:00,255.0,9.85,269.0,12.79,12.17,47.59359,-54.27349
2024-01-20 00:34:01+00:00,273.0,8.68,269.0,12.37,12.17,47.59359,-54.27349
2024-01-20 00:44:01+00:00,271.0,11.56,276.0,14.34,12.17,47.59359,-54.27349
2024-01-20 00:54:01+00:00,276.0,10.12,275.0,14.17,12.17,47.59359,-54.27349
2024-01-20 01:04:01+00:00,268.0,7.14,274.0,8.54,12.17,47.59359,-54.27349
2024-01-20 01:14:00+00:00,272.0,7.57,266.0,8.47,12.17,47.59359,-54.27349
2024-01-20 01:24:00+00:00,288.0,6.6,288.0,8.9,12.17,47.59359,-54.27349
2024-01-20 01:34:00+00:00,288.0,6.85,290.0,8.14,12.17,47.59359,-54.27349
2024-01-20 01:44:00+00:00,268.0,4.38,276.0,6.08,12.17,47.59359,-54.27349
2024-01-20 01:54:00+00:00,250.0,4.94,262.0,5.68,12.17,47.59359,-54.27349
2024-01-20 02:04:00+00:00,240.0,8.48,238.0,9.65,12.17,47.59359,-54.27349
2024-01-20 02:14:00+00:00,247.0,10.5,252.0,12.32,12.09,47.59359,-54.27349
2024-01-20 02:24:00+00:00,259.0,10.04,260.0,12.76,12.09,47.59359,-54.27349
2024-01-20 02:34:00+00:00,242.0,5.89,258.0,8.57,12.09,47.59359,-54.27349
2024-01-20 02:44:00+00:00,258.0,7.37,258.0,9.61,12.09,47.59359,-54.27349
2024-01-20 02:54:00+00:00,268.0,8.5,265.0,9.5,12.09,47.59359,-54.27349
2024-01-20 03:04:00+00:00,249.0,6.73,257.0,8.67,12.09,47.59359,-54.27349
2024-01-20 03:14:00+00:00,267.0,7.41,270.0,11.74,12.09,47.59359,-54.27349
2024-01-20 03:24:00+00:00,249.0,6.48,252.0,8.57,12.09,47.59359,-54.27349
2024-01-20 03:34:00+00:00,247.0,4.48,254.0,8.23,12.09,47.59359,-54.27349
2024-01-20 03:44:00+00:00,233.0,4.2,253.0,7.53,12.09,47.59359,-54.27349
2024-01-20 03:54:00+00:00,256.0,4.27,258.0,7.9,12.09,47.59359,-54.27349
2024-01-20 04:04:00+00:00,271.0,5.03,276.0,6.0,12.09,47.59359,-54.27349
2024-01-20 04:14:00+00:00,275.0,3.8,287.0,4.63,12.09,47.59359,-54.27349
2024-01-20 04:24:00+00:00,271.0,4.79,273.0,5.6,12.09,47.59359,-54.27349
2024-01-20 04:34:00+00:00,259.0,5.06,254.0,5.8,12.09,47.59359,-54.27349
2024-01-20 04:44:00+00:00,252.0,3.99,249.0,5.46,12.09,47.59359,-54.27349
2024-01-20 04:54:00+00:00,259.0,4.62,264.0,5.22,12.09,47.59359,-54.27349
2024-01-20 05:04:00+00:00,293.0,3.78,282.0,6.35,12.09,47.59359,-54.27349
2024-01-20 05:14:00+00:00,294.0,6.29,295.0,6.77,12.09,47.59359,-54.27349
2024-01-20 05:24:00+00:00,319.0,4.23,304.0,6.48,12.09,47.59359,-54.27349
2024-01-20 05:34:00+00:00,346.0,4.04,304.0,6.57,12.09,47.59359,-54.27349
2024-01-20 05:44:00+00:00,298.0,5.84,299.0,7.04,12.09,47.59359,-54.27349
2024-01-20 05:54:00+00:00,358.0,2.97,359.0,3.37,12.09,47.59359,-54.27349
2024-01-20 06:04:00+00:00,0.0,3.0,1.0,3.64,12.09,47.59359,-54.27349
2024-01-20 06:14:00+00:00,5.0,3.08,2.0,3.46,12.01,47.59359,-54.27349
2024-01-20 06:24:00+00:00,349.0,4.79,322.0,6.42,12.01,47.59359,-54.27349
2024-01-20 06:34:00+00:00,3.0,4.51,4.0,5.16,12.01,47.59359,-54.27349
2024-01-20 06:44:00+00:00,331.0,4.28,305.0,7.02,12.01,47.59359,-54.27349
2024-01-20 06:54:00+00:00,302.0,4.2,296.0,6.99,12.01,47.59359,-54.27349
2024-01-20 07:04:00+00:00,355.0,4.86,324.0,5.74,12.01,47.59359,-54.27349
2024-01-20 07:14:00+00:00,6.0,4.52,26.0,5.53,11.93,47.59359,-54.27349
2024-01-20 07:24:00+00:00,17.0,4.97,40.0,6.56,11.93,47.59359,-54.27349
2024-01-20 07:34:00+00:00,7.0,5.31,20.0,6.29,11.93,47.59359,-54.27349
2024-01-20 07:44:00+00:00,32.0,5.2,52.0,7.26,11.93,47.59359,-54.27349
2024-01-20 07:54:00+00:00,15.0,5.08,37.0,6.64,11.93,47.59359,-54.27349
2024-01-20 08:04:00+00:00,13.0,6.64,18.0,8.19,11.93,47.59359,-54.27349
2024-01-20 08:14:00+00:00,24.0,7.54,31.0,8.74,11.93,47.59359,-54.27349
2024-01-20 08:24:00+00:00,18.0,7.04,36.0,8.03,11.93,47.59359,-54.27349
2024-01-20 08:34:00+00:00,19.0,6.93,32.0,8.13,11.93,47.59359,-54.27349
2024-01-20 08:44:00+00:00,31.0,6.73,36.0,7.82,11.93,47.59359,-54.27349
2024-01-20 08:54:00+00:00,23.0,7.38,18.0,8.57,11.93,47.59359,-54.27349
2024-01-20 09:04:00+00:00,19.0,8.05,23.0,9.81,11.93,47.59359,-54.27349
2024-01-20 09:14:00+00:00,20.0,8.21,23.0,9.23,11.93,47.59359,-54.27349
2024-01-20 09:24:00+00:00,24.0,8.24,27.0,9.02,11.93,47.59359,-54.27349
2024-01-20 09:34:00+00:00,30.0,8.44,48.0,10.86,11.93,47.59359,-54.27349
2024-01-20 09:44:00+00:00,43.0,8.83,47.0,10.92,11.93,47.59359,-54.27349
2024-01-20 09:54:00+00:00,48.0,8.35,48.0,10.38,11.93,47.59359,-54.27349
2024-01-20 10:04:00+00:00,20.0,7.57,28.0,8.74,11.93,47.59359,-54.27349
2024-01-20 10:14:00+00:00,29.0,7.68,46.0,10.3,11.93,47.59359,-54.27349
2024-01-20 10:24:00+00:00,41.0,6.02,51.0,9.22,11.93,47.59359,-54.27349
2024-01-20 10:34:00+00:00,44.0,8.6,45.0,10.98,11.93,47.59359,-54.27349
2024-01-20 10:44:00+00:00,48.0,7.66,53.0,9.91,11.93,47.59359,-54.27349
2024-01-20 10:54:00+00:00,43.0,8.91,43.0,11.41,11.93,47.59359,-54.27349
2024-01-20 11:04:00+00:00,24.0,8.64,41.0,11.43,11.93,47.59359,-54.27349
2024-01-20 12:14:00+00:00,41.0,10.68,47.0,12.49,11.93,47.59359,-54.27349
2024-01-20 12:24:00+00:00,44.0,9.08,46.0,11.68,11.93,47.59359,-54.27349
2024-01-20 12:34:00+00:00,29.0,8.24,45.0,10.26,11.93,47.59359,-54.27349
2024-01-20 12:44:00+00:00,24.0,7.44,29.0,9.38,11.93,47.59359,-54.27349
2024-01-20 12:54:00+00:00,36.0,7.11,46.0,9.1,11.93,47.59359,-54.27349
2024-01-20 13:04:00+00:00,37.0,6.5,54.0,9.96,11.93,47.59359,-54.27349
2024-01-20 13:14:00+00:00,52.0,9.21,59.0,11.69,12.09,47.59359,-54.27349
2024-01-20 13:24:00+00:00,21.0,6.91,26.0,7.82,12.09,47.59359,-54.27349
2024-01-20 13:34:00+00:00,17.0,7.83,29.0,8.79,12.09,47.59359,-54.27349
2024-01-20 13:44:00+00:00,36.0,8.81,49.0,10.57,12.09,47.59359,-54.27349
2024-01-20 13:54:00+00:00,24.0,6.51,35.0,7.82,12.09,47.59359,-54.27349
2024-01-20 14:04:00+00:00,17.0,7.9,24.0,9.31,12.09,47.59359,-54.27349
2024-01-20 14:14:00+00:00,32.0,6.84,35.0,7.72,12.41,47.59359,-54.27349
2024-01-20 14:24:00+00:00,30.0,7.21,23.0,8.24,12.41,47.59359,-54.27349
2024-01-20 14:34:00+00:00,33.0,5.36,36.0,6.45,12.41,47.59359,-54.27349
2024-01-20 14:44:00+00:00,30.0,6.51,36.0,7.75,12.41,47.59359,-54.27349
2024-01-20 14:54:00+00:00,24.0,6.9,29.0,7.9,12.41,47.59359,-54.27349
2024-01-20 15:04:00+00:00,20.0,6.4,22.0,8.32,12.41,47.59359,-54.27349
2024-01-20 15:14:00+00:00,1.0,5.11,2.0,6.64,13.05,47.59359,-54.27349
2024-01-20 15:24:00+00:00,6.0,5.32,9.0,6.79,13.05,47.59359,-54.27349
2024-01-20 15:34:00+00:00,1.0,6.74,359.0,7.88,13.05,47.59359,-54.27349
2024-01-20 15:44:00+00:00,17.0,4.77,36.0,6.24,13.05,47.59359,-54.27349
2024-01-20 15:54:00+00:00,327.0,6.57,311.0,8.4,13.05,47.59359,-54.27349
2024-01-20 16:04:00+00:00,311.0,7.61,309.0,8.43,13.05,47.59359,-54.27349
2024-01-20 16:14:01+00:00,0.0,4.38,2.0,5.6,13.53,47.59359,-54.27349
2024-01-20 16:24:01+00:00,356.0,4.37,358.0,5.07,13.53,47.59359,-54.27349
2024-01-20 16:34:01+00:00,309.0,5.73,301.0,7.19,13.53,47.59359,-54.27349
2024-01-20 16:44:01+00:00,336.0,4.58,317.0,5.6,13.53,47.59359,-54.27349
2024-01-20 16:54:01+00:00,337.0,3.87,310.0,5.46,13.53,47.59359,-54.27349
2024-01-20 17:04:01+00:00,309.0,4.72,305.0,6.03,13.53,47.59359,-54.27349
2024-01-20 17:14:00+00:00,355.0,5.99,353.0,6.79,12.89,47.59359,-54.27349
2024-01-20 17:24:00+00:00,324.0,5.39,308.0,7.15,12.89,47.59359,-54.27349
2024-01-20 17:34:00+00:00,317.0,4.74,305.0,5.68,12.89,47.59359,-54.27349
2024-01-20 17:44:00+00:00,322.0,5.44,324.0,6.24,12.89,47.59359,-54.27349
2024-01-20 17:54:00+00:00,315.0,6.05,311.0,6.52,12.89,47.59359,-54.27349
2024-01-20 18:04:00+00:00,318.0,5.78,319.0,6.45,12.89,47.59359,-54.27349
2024-01-20 18:14:00+00:00,322.0,5.95,323.0,6.51,12.81,47.59359,-54.27349
2024-01-20 18:24:00+00:00,328.0,6.97,317.0,8.2,12.81,47.59359,-54.27349
2024-01-20 18:34:00+00:00,333.0,7.54,327.0,8.93,12.81,47.59359,-54.27349
2024-01-20 18:44:00+00:00,333.0,7.26,332.0,8.73,12.81,47.59359,-54.27349
2024-01-20 18:54:00+00:00,324.0,6.93,322.0,8.73,12.81,47.59359,-54.27349
2024-01-20 19:04:00+00:00,319.0,5.69,325.0,6.53,12.81,47.59359,-54.27349
2024-01-20 19:14:00+00:00,317.0,5.08,309.0,6.07,12.65,47.59359,-54.27349
2024-01-20 19:24:00+00:00,323.0,5.18,314.0,6.35,12.65,47.59359,-54.27349
2024-01-20 19:34:00+00:00,329.0,4.92,329.0,5.56,12.65,47.59359,-54.27349
2024-01-20 19:44:00+00:00,324.0,5.29,328.0,5.96,12.65,47.59359,-54.27349
2024-01-20 19:54:00+00:00,337.0,5.52,322.0,6.42,12.65,47.59359,-54.27349
2024-01-20 20:04:00+00:00,329.0,4.97,323.0,5.54,12.65,47.59359,-54.27349
2024-01-20 20:14:00+00:00,334.0,5.03,329.0,5.69,12.49,47.59359,-54.27349
2024-01-20 20:24:00+00:00,324.0,5.1,324.0,5.64,12.49,47.59359,-54.27349
2024-01-20 20:34:00+00:00,314.0,4.77,319.0,5.38,12.49,47.59359,-54.27349
2024-01-20 20:44:00+00:00,319.0,5.47,320.0,6.12,12.49,47.59359,-54.27349
2024-01-20 20:54:00+00:00,326.0,5.5,326.0,5.91,12.49,47.59359,-54.27349
2024-01-20 21:04:00+00:00,324.0,6.04,324.0,6.91,12.49,47.59359,-54.27349
2024-01-20 21:14:00+00:00,330.0,5.74,329.0,6.22,12.41,47.59359,-54.27349
2024-01-20 21:24:00+00:00,329.0,4.59,340.0,5.64,12.41,47.59359,-54.27349
2024-01-20 21:34:00+00:00,333.0,4.02,323.0,4.81,12.41,47.59359,-54.27349
2024-01-20 21:44:00+00:00,329.0,4.78,331.0,5.39,12.41,47.59359,-54.27349
2024-01-20 21:54:00+00:00,336.0,3.94,328.0,4.34,12.41,47.59359,-54.27349
2024-01-20 22:04:00+00:00,357.0,4.98,6.0,5.76,12.41,47.59359,-54.27349
2024-01-20 22:14:00+00:00,353.0,4.12,1.0,5.25,12.33,47.59359,-54.27349
2024-01-20 22:24:00+00:00,352.0,4.56,351.0,5.04,12.33,47.59359,-54.27349
2024-01-20 22:34:00+00:00,0.0,4.78,359.0,5.47,12.33,47.59359,-54.27349
2024-01-20 22:44:00+00:00,352.0,4.25,357.0,4.77,12.33,47.59359,-54.27349
2024-01-20 22:54:00+00:00,358.0,5.22,358.0,5.97,12.33,47.59359,-54.27349
2024-01-20 23:04:00+00:00,3.0,4.27,339.0,4.72,12.33,47.59359,-54.27349
2024-01-20 23:14:00+00:00,356.0,4.53,354.0,5.37,12.25,47.59359,-54.27349
2024-01-20 23:24:00+00:00,1.0,4.42,2.0,5.01,12.25,47.59359,-54.27349
2024-01-20 23:34:00+00:00,354.0,4.9,357.0,5.62,12.25,47.59359,-54.27349
2024-01-20 23:44:00+00:00,4.0,4.35,357.0,5.3,12.25,47.59359,-54.27349
2024-01-20 23:54:00+00:00,352.0,4.51,347.0,5.09,12.25,47.59359,-54.27349
